Weather Roundup
Issued by NWS Springfield, MO

Home | Current Version | Previous Version | Text Only | Print | Product List | Glossary On
Versions: 1 2 3 4 5 6 7 8 9 10 11 12 13 14 15 16 17 18 19 20 21 22 23 24 25 26 27 28 29 30 31 32 33 34 35 36 37 38 39 40 41 42 43 44 45 46 47 48 49 50
000
NZUS99 KSGF 272157
HRRSGF

HOURLY WEATHER
NATIONAL WEATHER SERVICE SPRINGFIELD MO
500 PM CDT FRI MAY 27 2016

......SGF CWA......

CITY           SKY/WX    TMP DP  RH WIND       PRES   REMARKS
SPRINGFIELD    LGT RAIN  72  65  78 SE8       29.75F
JOPLIN         CLOUDY    73  67  81 S5        29.73F
WEST PLAINS    CLOUDY    70  65  84 SE13G18   29.83F
ROLLA          TSTM      70  64  81 SE7       29.77S
BRANSON        CLOUDY    75  68  78 SE9       29.79F

......SURROUNDING SGF CWA......

CITY           SKY/WX    TMP DP  RH WIND       PRES   REMARKS
CHANUTE        PTSUNNY   76  64  66 SE16      29.68F
PARSONS        MOSUNNY   76  67  73 SE8       29.69F
COFFEYVILLE    CLOUDY    76  67  73 SE12      29.69F
EMPORIA        CLOUDY    73  66  78 SE13      29.66F
HARRISON AR    CLOUDY    75  65  70 S10       29.78F

......KANSAS AND MISSOURI......

CITY           SKY/WX    TMP DP  RH WIND       PRES   REMARKS
KANSAS CTY INT CLOUDY    70  68  93 E5        29.72F
SEDALIA        CLOUDY    79  67  66 S15       29.75S
ST JOSEPH      CLOUDY    76  64  66 S9        29.71F
ST LOUIS       CLOUDY    78  68  71 S15G23    29.81F
SPIRIT OF STL  CLOUDY    75  70  83 SE7       29.79S
WICHITA        TSTM      69  65  86 E14       29.67R
TOPEKA         CLOUDY    73  67  81 E10       29.69F
OLATHE         CLOUDY    75  65  70 S12       29.71F

......TENNESSEE......

CITY           SKY/WX    TMP DP  RH WIND       PRES   REMARKS
MEMPHIS        NOT AVBL
NASHVILLE      CLOUDY    85  62  46 SW7       29.94F

......ARKANSAS.......

CITY           SKY/WX    TMP DP  RH WIND       PRES   REMARKS
FAYETTEVILLE   PTSUNNY   74  67  78 S13       29.76F
FT SMITH       CLOUDY    78  64  61 SE8       29.74R
LITTLE ROCK    CLOUDY    76  65  68 SE12      29.76F

......OKLAHOMA.......

CITY           SKY/WX    TMP DP  RH WIND       PRES   REMARKS
TULSA          CLOUDY    79  65  62 S15       29.67F
PONCA CITY     MOSUNNY   82  61  48 S16G24    29.63S
MCALESTER      CLOUDY    76  63  64 S7        29.74R
OKLAHOMA CITY  MOSUNNY   81  64  56 S14       29.67F

......IOWA............

CITY           SKY/WX    TMP DP  RH WIND       PRES   REMARKS
DES MOINES     NOT AVBL
QUAD CITIES    CLOUDY    78  68  71 S10G22    29.76F

......ILLINOIS........

CITY           SKY/WX    TMP DP  RH WIND       PRES   REMARKS
QUINCY         PTSUNNY   79  66  65 S9        29.76F
CHICAGO        CLOUDY    77  67  71 S15       29.83S




USA.gov is the U.S. government's official web portal to all federal, state and local government web resources and services.